Location: Unspecified
(0.0000°N, 0.0000°E)
Time: 14:27:07
(UTC+01:00)

CZ-4B R/B - Visible Passes

Search period start: 18 December 2014 00:00
Search period end: 28 December 2014 00:00
Orbit: 493 x 671 km, 97.6° (Epoch: 17 December)

Date Brightness Start Highest point End Pass type
(mag) Time Alt. Az. Time Alt. Az. Time Alt. Az.
18 Dec 5.0 04:42:14 24° S 04:42:14 24° S 04:44:03 10° S visible
19 Dec 5.0 04:48:01 23° S 04:48:01 23° S 04:49:42 10° S visible
20 Dec 5.1 04:53:47 21° SSW 04:53:47 21° SSW 04:55:19 10° SSW visible
21 Dec 5.1 04:59:32 19° SSW 04:59:32 19° SSW 05:00:53 10° SSW visible
22 Dec 5.2 05:05:18 17° SSW 05:05:18 17° SSW 05:06:23 10° SSW visible
23 Dec 5.3 05:11:02 15° SSW 05:11:02 15° SSW 05:11:51 10° SSW visible
24 Dec 5.4 05:16:46 13° SW 05:16:46 13° SW 05:17:16 10° SSW visible
25 Dec 5.5 05:22:29 11° SW 05:22:29 11° SW 05:22:38 10° SW visible
